{"data":{"norad_id":61597,"intl_designator":"2024-188D","name":"ONEWEB-0689","alt_names":[],"object_type":"PAYLOAD","status":"ACTIVE","operator":null,"country":"UK","launch_date":"2024-10-20","launch_site_code":"AFWTR","launch_vehicle":null,"mission":null,"orbit_class":"UNKNOWN","rcs_meters":null,"size_class":null,"mass_kg":null,"dimensions":null,"purposes":["comms"],"wikipedia_slug":null,"has_3d_model":false,"image_url":null,"decayed_at":null,"tle_current":{"epoch":"2026-05-25T03:34:46.651584Z","epoch_age_seconds":59403,"freshness":"FRESH","line1":"1 61597U 24188D   26145.14915106 -.00000393  00000+0 -11441-2 0  9995","line2":"2 61597  87.8928  25.6313 0001725  92.4504 267.6821 13.11416045 81435","mean_motion":13.11416045,"eccentricity":0.0001725,"inclination_deg":87.8928,"raan_deg":25.6313,"arg_perigee_deg":92.4504,"mean_anomaly_deg":267.6821,"bstar":-0.0011441,"rev_number":8143,"period_min":109.80497039748,"perigee_km":1216.3758941207,"apogee_km":1218.9964531156,"semimajor_km":7595.8231736182,"source":"CELESTRAK","updated_at":"2026-05-25T13:38:22.748412Z"}}}